Regional Weather Roundup
Issued by NWS Little Rock, AR

Home | Current Version | Previous Version | Graphics & Text | Print | Product List | Glossary On
Versions: 1 2 3 4 5 6 7 8 9 10 11 12 13 14 15 16 17 18 19 20 21 22 23 24 25 26 27 28 29 30 31 32 33 34 35 36 37 38 39 40 41 42 43 44 45 46 47 48 49
000
ASUS44 KLZK 290505
RWRLZK

WEATHER ROUNDUP FOR ARKANSAS
NATIONAL WEATHER SERVICE LITTLE ROCK AR
1100 PM CST WED JAN 28 2015

NOTE: "FAIR" INDICATES FEW OR NO CLOUDS BELOW 12,000 FEET WITH NO
SIGNIFICANT WEATHER AND/OR OBSTRUCTIONS TO VISIBILITY.

ARZ001-003-010-029-290600-
NORTHWEST ARKANSAS

CITY           SKY/WX    TMP DP  RH WIND       PRES   REMARKS
FAYETTEVILLE   MOCLDY    61  43  51 SW9       29.95S
FORT SMITH     CLEAR     52  42  69 NE5       29.96S
HARRISON       MOCLDY    60  44  55 S12       29.92F
BENTONVILLE    MOCLDY    59  39  47 SW12      29.94S
ROGERS         MOCLDY    59  43  55 SW14      29.93S
SILOAM SPGS    MOCLDY   N/A N/A N/A SW10      29.96R
HIGHFILL       MOCLDY    60  42  51 SW12      29.93S
$$

ARZ004-005-016-290600-
NORTH CENTRAL ARKANSAS

CITY           SKY/WX    TMP DP  RH WIND       PRES   REMARKS
BATESVILLE     PTCLDY    54  39  58 S5        29.98F
FLIPPIN        PTCLDY    55  37  50 S5        29.92F
MTN HOME       PTCLDY    53  40  61 S8        29.91F
$$

ARZ040-041-290600-
WEST CENTRAL ARKANSAS

CITY           SKY/WX    TMP DP  RH WIND       PRES   REMARKS
MENA           MOCLDY    64  45  48 SW5       30.03R
MOUNT IDA      CLEAR     65  43  44 VRB5      29.99S
$$

ARZ009-017-025-026-028-290600-
NORTHEAST ARKANSAS

CITY           SKY/WX    TMP DP  RH WIND       PRES   REMARKS
CORNING        FAIR      50  39  66 S10       29.99F
JONESBORO      MOCLDY    49  38  65 S16       30.00F
NEWPORT        MOCLDY    51  41  69 S15       30.01F
WALNUT RIDGE   MOCLDY    46  37  71 S5        29.97F
BLYTHEVILLE    MOCLDY    50  35  56 S14       30.02F
$$

ARZ022-023-033-042-044-290600-
CENTRAL ARKANSAS

CITY           SKY/WX    TMP DP  RH WIND       PRES   REMARKS
LITTLE ROCK    PTCLDY    56  40  55 S7        30.02F
N LITTLE ROCK  PTCLDY    56  45  65 S12       30.02F
JACKSONVILLE   PTCLDY    55  42  61 S3        30.02R
SEARCY         PTCLDY    50  41  71 CALM      30.04S
HOT SPRINGS    CLEAR     61  42  49 S3        30.03F
RUSSELLVILLE   PTCLDY    47  40  76 CALM      29.98F
CLINTON        FAIR      37  36  93 CALM      30.03S
$$

ARZ036-290600-
EAST ARKANSAS

CITY           SKY/WX    TMP DP  RH WIND       PRES   REMARKS
WEST MEMPHIS   PTCLDY    49  36  61 S10       30.06S
$$

ARZ050-053-066-070-073-290600-
SOUTHWEST ARKANSAS

CITY           SKY/WX    TMP DP  RH WIND       PRES   REMARKS
ARKADELPHIA    FAIR      46  44  93 CALM      30.05R
CAMDEN         PTCLDY    59  39  47 MISG      30.07R
TEXARKANA      CLEAR     62  44  51 S16       30.03S
EL DORADO      CLEAR     58  41  53 S8        30.09R
DE QUEEN       PTCLDY    49  43  80 CALM      30.02R
$$

ARZ056-057-069-290600-
SOUTHEAST ARKANSAS

CITY           SKY/WX    TMP DP  RH WIND       PRES   REMARKS
PINE BLUFF     PTCLDY    59  41  51 S15       30.05F
STUTTGART      MOCLDY    54  39  58 S14       30.04F
MONTICELLO     PTCLDY    60  40  47 S14G20    30.08F

$$




USA.gov is the U.S. government's official web portal to all federal, state and local government web resources and services.